�������l�o���
Date,Time,MP-1(��Sv/h),MP-2(��Sv/h),MP-3(��Sv/h),MP-4(��Sv/h),MP-5(��Sv/h),MP-6(��Sv/h),MP-7(��Sv/h),MP-8(��Sv/h),����,����(m/s),���J
2023/05/16,00:00,0.555,0.806,0.490,0.985,0.710,0.323,0.573,0.540,�k�k��,6.5,��
2023/05/16,00:10,0.553,0.809,0.489,0.985,0.708,0.323,0.572,0.541,�k�k��,7.3,��
2023/05/16,00:20,0.555,0.808,0.490,0.984,0.710,0.323,0.573,0.540,�k�k��,7.5,��
2023/05/16,00:30,0.555,0.808,0.490,0.982,0.707,0.323,0.573,0.539,�k�k��,7.6,��
2023/05/16,00:40,0.555,0.810,0.489,0.984,0.709,0.323,0.574,0.539,�k�k��,7.5,��
2023/05/16,00:50,0.555,0.807,0.489,0.984,0.708,0.321,0.571,0.541,�k�k��,7.7,��
2023/05/16,01:00,0.554,0.806,0.490,0.984,0.709,0.323,0.572,0.541,�k�k��,7.9,��
2023/05/16,01:10,0.555,0.808,0.490,0.982,0.709,0.322,0.572,0.541,�k�k��,7.3,��
2023/05/16,01:20,0.557,0.809,0.491,0.984,0.709,0.322,0.571,0.541,�k�k��,8.1,��
2023/05/16,01:30,0.555,0.808,0.490,0.985,0.708,0.322,0.572,0.541,�k�k��,6.3,��
2023/05/16,01:40,0.554,0.808,0.491,0.984,0.709,0.322,0.573,0.541,�k�k��,6.4,��
2023/05/16,01:50,0.554,0.809,0.489,0.986,0.708,0.323,0.573,0.540,�k�k��,7.1,��
2023/05/16,02:00,0.556,0.811,0.490,0.983,0.710,0.324,0.573,0.540,�k�k��,6.7,��
2023/05/16,02:10,0.556,0.808,0.491,0.983,0.708,0.322,0.573,0.540,�k�k��,7.8,��
2023/05/16,02:20,0.555,0.808,0.491,0.982,0.708,0.324,0.573,0.540,�k�k��,7.0,��
2023/05/16,02:30,0.554,0.808,0.490,0.981,0.710,0.322,0.573,0.541,�k�k��,7.5,��
2023/05/16,02:40,0.554,0.807,0.490,0.986,0.709,0.322,0.573,0.541,�k�k��,7.6,��
2023/05/16,02:50,0.554,0.808,0.490,0.983,0.709,0.323,0.571,0.540,�k�k��,8.2,��
2023/05/16,03:00,0.554,0.807,0.489,0.982,0.710,0.323,0.573,0.541,�k�k��,7.0,��
2023/05/16,03:10,0.556,0.808,0.490,0.980,0.708,0.322,0.573,0.540,�k�k��,6.8,��
2023/05/16,03:20,0.555,0.809,0.489,0.984,0.709,0.323,0.573,0.541,�k�k��,6.5,��
2023/05/16,03:30,0.556,0.806,0.489,0.983,0.708,0.323,0.571,0.541,�k�k��,6.4,��
2023/05/16,03:40,0.553,0.807,0.490,0.983,0.709,0.322,0.572,0.540,�k�k��,7.1,��
2023/05/16,03:50,0.555,0.807,0.490,0.983,0.710,0.322,0.572,0.541,�k�k��,7.0,��
2023/05/16,04:00,0.554,0.808,0.489,0.983,0.708,0.321,0.573,0.541,�k�k��,7.1,��
2023/05/16,04:10,0.555,0.808,0.489,0.983,0.708,0.321,0.573,0.541,�k�k��,8.3,��
2023/05/16,04:20,0.555,0.809,0.489,0.983,0.709,0.321,0.573,0.542,�k�k��,7.2,��
2023/05/16,04:30,0.555,0.806,0.489,0.982,0.709,0.322,0.571,0.541,�k�k��,6.7,��
2023/05/16,04:40,0.556,0.808,0.490,0.982,0.708,0.323,0.572,0.542,�k�k��,6.6,��
2023/05/16,04:50,0.556,0.806,0.490,0.983,0.708,0.322,0.570,0.542,�k�k��,6.2,��
2023/05/16,05:00,0.553,0.807,0.490,0.984,0.708,0.322,0.571,0.539,�k�k��,6.9,��
2023/05/16,05:10,0.553,0.806,0.491,0.984,0.708,0.322,0.572,0.541,�k�k��,7.1,��
2023/05/16,05:20,0.556,0.808,0.489,0.985,0.708,0.323,0.573,0.541,�k�k��,7.8,��
2023/05/16,05:30,0.556,0.808,0.488,0.985,0.710,0.322,0.574,0.541,�k�k��,6.8,��
2023/05/16,05:40,0.555,0.807,0.491,0.982,0.709,0.321,0.573,0.542,�k��,6.8,��
2023/05/16,05:50,0.554,0.810,0.490,0.985,0.710,0.323,0.572,0.539,�k�k��,6.9,��
2023/05/16,06:00,0.554,0.808,0.491,0.984,0.709,0.321,0.573,0.542,�k�k��,6.8,��
2023/05/16,06:10,0.555,0.808,0.489,0.984,0.708,0.322,0.573,0.541,�k�k��,6.6,��
2023/05/16,06:20,0.555,0.809,0.490,0.983,0.709,0.321,0.573,0.540,�k�k��,5.9,��
2023/05/16,06:30,0.555,0.808,0.490,0.985,0.708,0.323,0.572,0.543,�k�k��,5.8,��
2023/05/16,06:40,0.553,0.811,0.490,0.983,0.710,0.321,0.572,0.543,�k�k��,6.4,��
2023/05/16,06:50,0.554,0.810,0.488,0.984,0.707,0.322,0.570,0.541,�k�k��,6.3,��
2023/05/16,07:00,0.555,0.809,0.491,0.982,0.710,0.321,0.572,0.540,�k�k��,6.0,��
2023/05/16,07:10,0.554,0.806,0.490,0.984,0.710,0.321,0.569,0.540,�k�k��,6.2,��
2023/05/16,07:20,0.554,0.806,0.490,0.986,0.709,0.322,0.572,0.541,�k�k��,6.0,��
2023/05/16,07:30,0.556,0.807,0.490,0.983,0.709,0.320,0.573,0.539,�k�k��,5.1,��
2023/05/16,07:40,0.556,0.806,0.490,0.985,0.708,0.321,0.569,0.539,�k,6.1,��
2023/05/16,07:50,0.555,0.806,0.490,0.984,0.708,0.320,0.572,0.538,�k,5.9,��
2023/05/16,08:00,0.554,0.805,0.490,0.986,0.709,0.320,0.573,0.538,�k�k��,7.9,��
2023/05/16,08:10,0.553,0.806,0.491,0.986,0.710,0.319,0.573,0.538,�k,6.8,��
2023/05/16,08:20,0.554,0.805,0.490,0.985,0.707,0.321,0.572,0.537,�k�k��,7.5,��
2023/05/16,08:30,0.555,0.804,0.488,0.986,0.706,0.320,0.572,0.538,�k�k��,7.8,��
2023/05/16,08:40,0.554,0.805,0.488,0.984,0.706,0.321,0.572,0.536,�k�k��,7.1,��
2023/05/16,08:50,0.555,0.804,0.488,0.985,0.705,0.321,0.573,0.538,�k�k��,8.4,��
2023/05/16,09:00,0.553,0.806,0.490,0.985,0.708,0.321,0.572,0.537,�k,6.1,��
2023/05/16,09:10,0.554,0.806,0.489,0.984,0.707,0.322,0.573,0.536,�k,7.8,��
2023/05/16,09:20,0.556,0.808,0.489,0.987,0.707,0.321,0.572,0.537,�k,8.4,��
2023/05/16,09:30,0.554,0.807,0.488,0.984,0.708,0.320,0.571,0.537,�k,10.3,��
2023/05/16,09:40,0.555,0.807,0.489,0.987,0.706,0.321,0.571,0.538,�k�k��,9.4,��
2023/05/16,09:50,0.556,0.808,0.490,0.989,0.708,0.320,0.571,0.536,�k,9.6,��
2023/05/16,10:00,0.555,0.809,0.489,0.986,0.709,0.320,0.571,0.538,�k,9.0,��
2023/05/16,10:10,0.556,0.807,0.488,0.988,0.708,0.321,0.574,0.538,�k,8.6,��
2023/05/16,10:20,0.556,0.808,0.490,0.985,0.708,0.321,0.572,0.540,�k,7.6,��
2023/05/16,10:30,0.554,0.809,0.490,0.986,0.705,0.320,0.573,0.539,�k�k��,8.0,��
2023/05/16,10:40,0.556,0.809,0.489,0.987,0.706,0.320,0.573,0.539,�k�k��,7.6,��
2023/05/16,10:50,0.556,0.810,0.490,0.988,0.704,0.322,0.572,0.540,�k�k��,7.8,��
2023/05/16,11:00,0.554,0.808,0.488,0.988,0.701,0.321,0.570,0.540,�k�k��,9.0,��
2023/05/16,11:10,0.556,0.811,0.491,0.986,0.705,0.322,0.572,0.541,�k,8.4,��
2023/05/16,11:20,0.556,0.810,0.490,0.986,0.709,0.320,0.572,0.540,�k�k��,6.8,��
2023/05/16,11:30,0.557,0.812,0.492,0.986,-,0.321,0.572,0.538,�k�k��,7.2,��
2023/05/16,11:40,0.557,0.811,0.491,0.985,-,0.321,0.572,0.540,�k�k��,6.9,��
2023/05/16,11:50,0.556,0.811,0.490,0.988,-,0.322,0.571,0.537,�k�k��,7.3,��
2023/05/16,12:00,0.557,0.811,0.491,0.987,-,0.323,0.572,0.537,�k,7.3,��
2023/05/16,12:10,0.557,0.811,0.492,0.986,-,0.323,0.574,0.538,�k�k��,6.4,��
2023/05/16,12:20,0.557,0.813,0.492,0.986,-,0.322,0.574,0.540,�k�k��,6.0,��
2023/05/16,12:30,0.557,0.812,0.490,0.988,-,0.324,0.571,0.540,�k�k��,6.2,��
2023/05/16,12:40,0.558,0.813,0.491,0.985,-,0.323,0.575,0.540,�k�k��,6.3,��
2023/05/16,12:50,0.557,0.811,0.491,0.987,-,0.323,0.574,0.539,�k�k��,5.0,��
2023/05/16,13:00,0.558,0.813,0.493,0.987,-,0.323,0.573,0.540,�k�k��,5.2,��
2023/05/16,13:10,0.559,0.813,0.493,0.986,-,0.323,0.573,0.542,�k�k��,5.3,��
2023/05/16,13:20,0.558,0.815,0.491,0.987,-,0.322,0.573,0.539,�k�k��,5.3,��
2023/05/16,13:30,0.557,0.813,0.492,0.988,-,0.322,0.574,0.542,�k�k��,5.3,��
2023/05/16,13:40,0.557,0.814,0.493,0.989,-,0.322,0.574,0.541,�k��,5.4,��
2023/05/16,13:50,0.558,0.813,0.492,0.988,-,0.322,0.573,0.542,�k��,5.2,��
2023/05/16,14:00,0.557,0.814,0.491,0.988,-,0.321,0.574,0.540,�k�k��,5.2,��
2023/05/16,14:10,0.560,0.814,0.491,0.987,-,0.323,0.573,0.542,�k�k��,4.7,��
2023/05/16,14:20,0.557,0.814,0.491,0.988,-,0.322,0.573,0.540,�k�k��,4.1,��
2023/05/16,14:30,0.559,0.816,0.491,0.988,-,0.323,0.574,0.540,�k�k��,3.4,��
2023/05/16,14:40,0.558,0.816,0.491,0.989,0.713,0.323,0.573,0.542,�k�k��,3.7,��
2023/05/16,14:50,0.556,0.814,0.492,0.987,0.713,0.323,0.574,0.540,�k,3.6,��
2023/05/16,15:00,0.560,0.817,0.493,0.991,0.717,0.321,0.574,0.539,�k�k��,3.0,��
2023/05/16,15:10,0.559,0.815,0.493,0.989,0.715,0.321,0.575,0.541,�k�k��,3.4,��
2023/05/16,15:20,0.560,0.814,0.491,0.988,0.715,0.322,0.573,0.541,�k�k��,3.3,��
2023/05/16,15:30,0.559,0.815,0.492,0.988,0.714,0.323,0.574,0.542,�k�k��,3.1,��
2023/05/16,15:40,0.561,0.816,0.493,0.989,0.715,0.321,0.574,0.542,�k�k��,3.6,��
2023/05/16,15:50,0.559,0.814,0.492,0.988,0.716,0.323,0.575,0.542,�k�k��,2.8,��
2023/05/16,16:00,0.560,0.814,0.493,0.991,0.716,0.323,0.573,0.540,�k,3.6,��
2023/05/16,16:10,0.561,0.815,0.493,0.990,0.718,0.323,0.575,0.542,�k�k��,3.3,��
2023/05/16,16:20,0.557,0.815,0.493,0.990,0.714,0.322,0.576,0.543,�k�k��,3.1,��
2023/05/16,16:30,0.558,0.814,0.493,0.990,0.715,0.323,0.574,0.541,�k�k��,3.3,��
2023/05/16,16:40,0.558,0.816,0.493,0.991,0.716,0.324,0.576,0.540,�k�k��,4.0,��
2023/05/16,16:50,0.557,0.816,0.493,0.988,0.717,0.323,0.574,0.542,�k�k��,3.9,��
2023/05/16,17:00,0.557,0.814,0.493,0.990,0.716,0.322,0.575,0.541,�k�k��,3.2,��
2023/05/16,17:10,0.558,0.817,0.494,0.988,0.715,0.322,0.575,0.541,�k�k��,2.9,��
2023/05/16,17:20,0.558,0.818,0.493,0.992,0.713,0.321,0.574,0.541,�k�k��,2.9,��
2023/05/16,17:30,0.558,0.817,0.491,0.992,0.714,0.324,0.574,0.540,�k�k��,3.1,��
2023/05/16,17:40,0.558,0.819,0.491,0.991,0.714,0.323,0.575,0.542,�k�k��,3.0,��
2023/05/16,17:50,0.558,0.819,0.493,0.991,0.715,0.321,0.576,0.541,�k,3.3,��
2023/05/16,18:00,0.559,0.819,0.492,0.991,0.715,0.323,0.575,0.542,�k�k��,3.0,��
2023/05/16,18:10,0.556,0.819,0.493,0.995,0.715,0.323,0.576,0.542,�k,3.0,��
2023/05/16,18:20,0.560,0.819,0.492,0.994,0.716,0.324,0.575,0.540,�k,3.5,��
2023/05/16,18:30,0.559,0.819,0.492,0.993,0.717,0.324,0.574,0.540,�k,3.1,��
2023/05/16,18:40,0.558,0.820,0.493,0.994,0.716,0.324,0.575,0.541,�k,2.8,��
2023/05/16,18:50,0.559,0.818,0.495,0.994,0.717,0.323,0.572,0.540,�k,2.6,��
2023/05/16,19:00,0.559,0.820,0.495,0.993,0.719,0.324,0.574,0.542,�k,2.0,��
2023/05/16,19:10,0.561,0.818,0.492,0.994,0.716,0.322,0.575,0.542,�k�k��,1.9,��
2023/05/16,19:20,0.560,0.820,0.495,0.995,0.719,0.324,0.576,0.543,�k�k��,2.0,��
2023/05/16,19:30,0.561,0.818,0.494,0.994,0.718,0.324,0.575,0.540,�k�k��,2.0,��
2023/05/16,19:40,0.560,0.820,0.496,0.994,0.716,0.324,0.577,0.542,�k�k��,2.0,��
2023/05/16,19:50,0.560,0.819,0.494,0.992,0.718,0.323,0.577,0.543,�k�k��,2.0,��
2023/05/16,20:00,0.560,0.819,0.495,0.994,0.719,0.325,0.576,0.541,�k�k��,2.0,��
2023/05/16,20:10,0.560,0.819,0.492,0.991,0.717,0.324,0.578,0.541,�k�k��,2.2,��
2023/05/16,20:20,0.562,0.819,0.494,0.992,0.716,0.324,0.577,0.542,�k��,1.5,��
2023/05/16,20:30,0.559,0.819,0.494,0.991,0.720,0.325,0.578,0.541,��,0.6,��
2023/05/16,20:40,0.561,0.818,0.492,0.993,0.718,0.325,0.577,0.541,-,CALM,��
2023/05/16,20:50,0.560,0.819,0.494,0.991,0.717,0.325,0.577,0.541,-,CALM,��
2023/05/16,21:00,0.560,0.817,0.493,0.991,0.719,0.323,0.576,0.540,�k�k��,0.6,��
2023/05/16,21:10,0.559,0.819,0.492,0.991,0.718,0.324,0.575,0.541,�k��,0.9,��
2023/05/16,21:20,0.559,0.819,0.494,0.992,0.720,0.324,0.577,0.542,��,0.6,��
2023/05/16,21:30,0.559,0.817,0.492,0.991,0.718,0.326,0.576,0.542,��,0.6,��
2023/05/16,21:40,0.560,0.816,0.492,0.994,0.718,0.325,0.576,0.541,-,CALM,��
2023/05/16,21:50,0.560,0.819,0.494,0.994,0.717,0.324,0.575,0.541,�k�k��,1.2,��
2023/05/16,22:00,0.560,0.817,0.493,0.993,0.718,0.325,0.576,0.541,�k�k��,0.9,��
2023/05/16,22:10,0.559,0.817,0.494,0.993,0.716,0.323,0.576,0.541,�k�k��,1.9,��
2023/05/16,22:20,0.560,0.818,0.493,0.994,0.717,0.325,0.575,0.541,�k�k��,1.2,��
2023/05/16,22:30,0.559,0.818,0.492,0.994,0.718,0.324,0.576,0.542,���k��,0.9,��
2023/05/16,22:40,0.560,0.817,0.493,0.993,0.720,0.324,0.578,0.542,���쐼,0.9,��
2023/05/16,22:50,0.559,0.816,0.493,0.994,0.720,0.324,0.577,0.541,�쐼,1.1,��
2023/05/16,23:00,0.559,0.816,0.493,0.992,0.719,0.324,0.577,0.542,�쐼,1.2,��
2023/05/16,23:10,0.559,0.818,0.493,0.993,0.720,0.323,0.577,0.542,��쐼,0.9,��
2023/05/16,23:20,0.558,0.818,0.494,0.993,0.718,0.323,0.576,0.541,��쐼,0.9,��
2023/05/16,23:30,0.558,0.819,0.493,0.994,0.718,0.323,0.576,0.541,��,1.2,��
2023/05/16,23:40,0.558,0.817,0.494,0.995,0.718,0.324,0.575,0.542,��쐼,1.5,��
2023/05/16,23:50,0.560,0.816,0.494,0.993,0.718,0.323,0.577,0.542,��쐼,1.7,��
